When you browse on this site, cookies collect data to enhance your experience and personalize the content and advertising you see.
Visit our Privacy Policy to learn more. By continuing to use the site, you agree to this use of cookies and data.
  • In Czech Republic
  • List of Countries
  • For 7 days
  • Water Temperature
  • Weather Map
  • Weather Widgets
  • user-avatar
    Login

    Hourly Weather Mitrega

    Today, 7 December, Saturday

    Time Temperature Precipitation Wind Pressure Humidity
    00:00 -3°C° 0 mm 6 mps 728 mmHg 58%
    01:00 -4°C° 0 mm 5 mps 728 mmHg 59%
    02:00 -3°C° 0 mm 6 mps 728 mmHg 59%
    03:00 -3°C° 0 mm 6 mps 727 mmHg 58%
    04:00 -3°C° 0 mm 7 mps 727 mmHg 57%
    05:00 -2°C° 0 mm 7 mps 726 mmHg 58%
    06:00 -2°C° 0 mm 7 mps 726 mmHg 60%
    07:00 -2°C° 0 mm 8 mps 726 mmHg 61%
    08:00 -1°C° 0.1 mm 8 mps 726 mmHg 67%
    09:00 -1°C° 0.1 mm 8 mps 726 mmHg 73%
    10:00 -1°C° 0.1 mm 8 mps 726 mmHg 79%
    11:00 0°C° 0 mm 8 mps 726 mmHg 78%
    12:00 +1°C° 0 mm 8 mps 726 mmHg 78%
    13:00 +2°C° 0 mm 8 mps 726 mmHg 77%
    14:00 +2°C° 0.1 mm 8 mps 726 mmHg 80%
    15:00 +2°C° 0.1 mm 7 mps 726 mmHg 84%
    16:00 +2°C° 0.1 mm 7 mps 726 mmHg 87%
    17:00 +2°C° 0.1 mm 7 mps 727 mmHg 87%
    18:00 +2°C° 0.1 mm 6 mps 727 mmHg 88%
    19:00 +2°C° 0.1 mm 6 mps 727 mmHg 88%
    20:00 +2°C° 0 mm 6 mps 728 mmHg 87%
    21:00 +2°C° 0 mm 6 mps 728 mmHg 86%
    22:00 +2°C° 0 mm 6 mps 728 mmHg 85%
    23:00 +2°C° 0 mm 6 mps 728 mmHg 85%

    Tomorrow, 8 December, Sunday

    Time Temperature Precipitation Wind Pressure Humidity
    00:00 +2°C° 0 mm 6 mps 728 mmHg 85%
    01:00 +2°C° 0 mm 6 mps 728 mmHg 86%
    02:00 +2°C° 0 mm 5 mps 728 mmHg 85%
    03:00 +2°C° 0 mm 5 mps 728 mmHg 85%
    04:00 +2°C° 0 mm 5 mps 728 mmHg 84%
    05:00 +2°C° 0 mm 5 mps 728 mmHg 84%
    06:00 +2°C° 0 mm 5 mps 728 mmHg 84%
    07:00 +2°C° 0 mm 5 mps 728 mmHg 83%
    08:00 +2°C° 0 mm 5 mps 728 mmHg 82%
    09:00 +2°C° 0 mm 5 mps 728 mmHg 80%
    10:00 +3°C° 0 mm 6 mps 728 mmHg 78%
    11:00 +3°C° 0 mm 6 mps 728 mmHg 76%
    12:00 +4°C° 0 mm 7 mps 727 mmHg 74%
    13:00 +4°C° 0 mm 7 mps 726 mmHg 71%
    14:00 +4°C° 0 mm 7 mps 726 mmHg 73%
    15:00 +4°C° 0 mm 7 mps 725 mmHg 75%
    16:00 +3°C° 0 mm 7 mps 725 mmHg 77%
    17:00 +3°C° 0 mm 7 mps 725 mmHg 75%
    18:00 +4°C° 0 mm 7 mps 725 mmHg 73%
    19:00 +4°C° 0 mm 7 mps 724 mmHg 71%
    20:00 +4°C° 0.2 mm 7 mps 724 mmHg 72%
    21:00 +4°C° 0.2 mm 8 mps 724 mmHg 73%
    22:00 +4°C° 0.2 mm 8 mps 723 mmHg 74%
    23:00 +4°C° 0.3 mm 8 mps 723 mmHg 76%

    Day after tomorrow, 9 December, Monday

    Time Temperature Precipitation Wind Pressure Humidity
    00:00 +4°C° 0.3 mm 7 mps 723 mmHg 79%
    01:00 +4°C° 0.3 mm 7 mps 722 mmHg 82%
    02:00 +4°C° 0.3 mm 7 mps 722 mmHg 82%
    03:00 +4°C° 0.3 mm 7 mps 721 mmHg 83%
    04:00 +4°C° 0.3 mm 7 mps 721 mmHg 84%
    05:00 +4°C° 0.1 mm 7 mps 721 mmHg 81%
    06:00 +4°C° 0.1 mm 6 mps 721 mmHg 79%
    07:00 +4°C° 0.1 mm 6 mps 721 mmHg 77%
    08:00 +4°C° 0 mm 6 mps 721 mmHg 77%
    09:00 +4°C° 0 mm 6 mps 721 mmHg 77%
    10:00 +5°C° 0 mm 7 mps 722 mmHg 77%
    11:00 +5°C° 0 mm 7 mps 721 mmHg 73%
    12:00 +5°C° 0 mm 7 mps 721 mmHg 69%
    13:00 +5°C° 0 mm 7 mps 721 mmHg 65%
    14:00 +5°C° 0 mm 7 mps 721 mmHg 68%
    15:00 +4°C° 0 mm 6 mps 721 mmHg 70%
    16:00 +4°C° 0 mm 6 mps 720 mmHg 73%
    17:00 +3°C° 0 mm 6 mps 720 mmHg 73%
    18:00 +3°C° 0 mm 6 mps 721 mmHg 73%
    19:00 +3°C° 0 mm 6 mps 721 mmHg 74%
    20:00 +3°C° 0 mm 6 mps 721 mmHg 74%
    21:00 +3°C° 0 mm 6 mps 721 mmHg 73%
    22:00 +2°C° 0 mm 6 mps 721 mmHg 73%
    23:00 +2°C° 0 mm 6 mps 721 mmHg 75%

    10 December, Tuesday

    Time Temperature Precipitation Wind Pressure Humidity
    00:00 +2°C° 0 mm 6 mps 722 mmHg 76%
    01:00 +2°C° 0 mm 7 mps 722 mmHg 78%
    02:00 +2°C° 0 mm 6 mps 722 mmHg 78%
    03:00 +2°C° 0 mm 6 mps 723 mmHg 79%
    04:00 +1°C° 0 mm 6 mps 723 mmHg 79%
    05:00 +1°C° 0.1 mm 6 mps 724 mmHg 81%
    06:00 +1°C° 0.1 mm 6 mps 725 mmHg 82%
    07:00 +1°C° 0.1 mm 6 mps 726 mmHg 84%
    08:00 +1°C° 0.2 mm 6 mps 726 mmHg 83%
    09:00 +1°C° 0.2 mm 6 mps 727 mmHg 83%
    10:00 +1°C° 0.2 mm 6 mps 728 mmHg 82%
    11:00 +1°C° 0 mm 6 mps 728 mmHg 75%
    12:00 +1°C° 0 mm 6 mps 728 mmHg 69%
    13:00 +1°C° 0 mm 6 mps 729 mmHg 62%
    14:00 +1°C° 0 mm 6 mps 729 mmHg 66%
    15:00 0°C° 0 mm 5 mps 730 mmHg 71%
    16:00 0°C° 0 mm 4 mps 730 mmHg 75%
    17:00 0°C° 0.1 mm 4 mps 731 mmHg 81%
    18:00 0°C° 0.1 mm 4 mps 732 mmHg 88%
    19:00 +1°C° 0.1 mm 3 mps 733 mmHg 94%
    20:00 +1°C° 0.2 mm 3 mps 734 mmHg 91%
    21:00 +1°C° 0.2 mm 3 mps 734 mmHg 87%
    22:00 0°C° 0.2 mm 3 mps 735 mmHg 83%
    23:00 0°C° 0 mm 3 mps 735 mmHg 83%

    11 December, Wednesday

    Time Temperature Precipitation Wind Pressure Humidity
    00:00 -1°C° 0 mm 2 mps 735 mmHg 83%
    01:00 +1°C° 0 mm 1 mps 735 mmHg 83%
    02:00 0°C° 0 mm 1 mps 735 mmHg 84%
    03:00 0°C° 0 mm 1 mps 735 mmHg 84%
    04:00 0°C° 0 mm 1 mps 735 mmHg 84%
    05:00 0°C° 0 mm 1 mps 735 mmHg 84%
    06:00 0°C° 0 mm 1 mps 735 mmHg 84%
    07:00 -2°C° 0 mm 2 mps 734 mmHg 84%
    08:00 -2°C° 0 mm 2 mps 734 mmHg 81%
    09:00 -1°C° 0 mm 3 mps 734 mmHg 79%
    10:00 0°C° 0 mm 3 mps 734 mmHg 76%
    11:00 0°C° 0 mm 3 mps 734 mmHg 74%
    12:00 +1°C° 0 mm 3 mps 733 mmHg 71%
    13:00 +1°C° 0 mm 4 mps 732 mmHg 69%
    14:00 +1°C° 0 mm 3 mps 732 mmHg 73%
    15:00 0°C° 0 mm 3 mps 732 mmHg 78%
    16:00 0°C° 0 mm 3 mps 731 mmHg 82%
    17:00 -1°C° 0 mm 3 mps 731 mmHg 83%
    18:00 -1°C° 0 mm 2 mps 731 mmHg 84%
    19:00 -1°C° 0 mm 2 mps 731 mmHg 85%
    20:00 -1°C° 0 mm 2 mps 730 mmHg 84%
    21:00 -1°C° 0 mm 2 mps 730 mmHg 82%
    22:00 +1°C° 0 mm 1 mps 730 mmHg 81%
    23:00 +1°C° 0 mm 1 mps 730 mmHg 79%

    12 December, Thursday

    Time Temperature Precipitation Wind Pressure Humidity
    00:00 +1°C° 0 mm 1 mps 729 mmHg 78%
    01:00 +1°C° 0 mm 1 mps 729 mmHg 76%
    02:00 +1°C° 0 mm 1 mps 729 mmHg 74%
    03:00 +1°C° 0 mm 1 mps 728 mmHg 72%
    04:00 -1°C° 0 mm 2 mps 728 mmHg 70%
    05:00 -1°C° 0 mm 2 mps 728 mmHg 70%
    06:00 -1°C° 0 mm 2 mps 728 mmHg 69%
    07:00 +1°C° 0 mm 2 mps 728 mmHg 68%
    08:00 +1°C° 0 mm 2 mps 728 mmHg 71%
    09:00 +2°C° 0 mm 2 mps 728 mmHg 73%
    10:00 +3°C° 0 mm 2 mps 728 mmHg 76%
    11:00 +3°C° 0 mm 2 mps 728 mmHg 78%
    12:00 +2°C° 0 mm 3 mps 727 mmHg 80%
    13:00 +3°C° 0 mm 3 mps 727 mmHg 83%
    14:00 +2°C° 0.1 mm 3 mps 727 mmHg 85%
    15:00 +2°C° 0.1 mm 2 mps 727 mmHg 88%
    16:00 +2°C° 0.1 mm 2 mps 727 mmHg 90%
    17:00 +1°C° 0.1 mm 2 mps 726 mmHg 91%
    18:00 +2°C° 0.1 mm 1 mps 726 mmHg 92%
    19:00 +2°C° 0.1 mm 1 mps 726 mmHg 93%
    20:00 +2°C° 0 mm 1 mps 725 mmHg 93%
    21:00 +2°C° 0 mm 1 mps 725 mmHg 94%
    22:00 +2°C° 0 mm 1 mps 725 mmHg 95%
    23:00 +2°C° 0.1 mm 1 mps 724 mmHg 95%
    Show more